Location: Sternwarte_Laufen
(47.9344°N, 12.9346°E)
Time: 10:58:54
(UTC+01:00)

ISS - Visible Passes

Search period start: 16 November 2018 00:00
Search period end: 26 November 2018 00:00
Orbit: 401 x 408 km, 51.6° (Epoch: 16 November)

Date Brightness Start Highest point End Pass type
(mag) Time Alt. Az. Time Alt. Az. Time Alt. Az.
24 Nov -1.7 18:32:21 10° SSW 18:33:41 19° S 18:33:41 19° S visible
25 Nov -1.9 17:41:00 10° S 17:43:07 16° SE 17:43:48 15° ESE visible
25 Nov -0.7 19:15:55 10° WSW 19:16:28 14° WSW 19:16:28 14° WSW visible
